{"data":{"norad_id":58244,"epoch":"2026-05-25T04:39:32.669568Z","epoch_age_seconds":61735,"freshness":"FRESH","line1":"1 58244U 23171Q   26145.19412812 -.00002011  00000+0 -63546-4 0  9996","line2":"2 58244  43.0021 213.2777 0002307 265.5954  94.4634 15.27591639141433","mean_motion":15.27591639,"eccentricity":0.0002307,"inclination_deg":43.0021,"raan_deg":213.2777,"arg_perigee_deg":265.5954,"mean_anomaly_deg":94.4634,"bstar":-6.3546e-5,"rev_number":14143,"period_min":94.266030478058,"perigee_km":481.43137731563,"apogee_km":484.59711250003,"semimajor_km":6861.1512449078,"source":"CELESTRAK","updated_at":"2026-05-25T13:38:18.582105Z"}}